iso_date,epoch_date,Year,Hour,Min,DOY,POS_DOY,Lat,Lon,BP,Ts,Ta,has_bp,has_ts,has_ta,BuoyID,Buoy_Type,Buoy_Owner,Logistics,Hemisphere
2016-09-17T13:33:36Z,1474119216,2016,13,34,261.565,258.721,86.321,57.7844,1011.0,-2.1,-1.1,yes,yes,yes,300234064015020,Snow_Buoy,AWI-USIABP,unknown,North
2016-09-17T13:59:31Z,1474120771,2016,14,0,261.583,261.583,86.3234,57.8532,1010.4,-1.9,-1.2,yes,yes,yes,300234064015020,Snow_Buoy,AWI-USIABP,unknown,North
2016-09-17T15:00:00Z,1474124400,2016,15,0,261.625,261.625,86.3386,57.8546,1009.9,-1.6,-1.0,yes,yes,yes,300234064015020,Snow_Buoy,AWI-USIABP,unknown,North
2016-09-17T16:00:28Z,1474128029,2016,16,0,261.667,261.667,86.349,57.863,1009.3,-1.3,-0.8,yes,yes,yes,300234064015020,Snow_Buoy,AWI-USIABP,unknown,North
2016-09-17T17:02:24Z,1474131744,2016,17,3,261.71,261.71,86.3566,57.9196,1009.5,-0.1,-0.6,yes,yes,yes,300234064015020,Snow_Buoy,AWI-USIABP,unknown,North
2016-09-17T18:02:52Z,1474135373,2016,18,3,261.752,261.752,86.3712,57.8998,1008.7,1.0,-0.1,yes,yes,yes,300234064015020,Snow_Buoy,AWI-USIABP,unknown,North
2016-09-17T19:00:28Z,1474138829,2016,19,0,261.792,261.792,86.381,57.9712,1006.6,-0.5,-0.5,yes,yes,yes,300234064015020,Snow_Buoy,AWI-USIABP,unknown,North
2016-09-17T19:59:31Z,1474142371,2016,20,0,261.833,261.833,86.3914,58.0616,1006.6,-0.5,-0.5,yes,yes,yes,300234064015020,Snow_Buoy,AWI-USIABP,unknown,North
2016-09-17T21:00:00Z,1474146000,2016,21,0,261.875,261.875,86.4008,58.1654,1005.8,-0.5,-0.3,yes,yes,yes,300234064015020,Snow_Buoy,AWI-USIABP,unknown,North
2016-09-17T22:00:28Z,1474149629,2016,22,0,261.917,261.917,86.409,58.265,1004.7,-0.5,-0.2,yes,yes,yes,300234064015020,Snow_Buoy,AWI-USIABP,unknown,North
2016-09-17T22:59:31Z,1474153171,2016,23,0,261.958,261.958,86.4166,58.3522,1003.6,-0.5,0.1,yes,yes,yes,300234064015020,Snow_Buoy,AWI-USIABP,unknown,North
2016-09-18T00:00:00Z,1474156800,2016,0,0,262.0,262.0,86.423,58.4252,1002.2,-0.4,0.5,yes,yes,yes,300234064015020,Snow_Buoy,AWI-USIABP,unknown,North
2016-09-18T01:00:28Z,1474160429,2016,1,0,262.042,262.042,86.429,58.4866,1001.1,-0.4,0.9,yes,yes,yes,300234064015020,Snow_Buoy,AWI-USIABP,unknown,North
2016-09-18T01:59:31Z,1474163971,2016,2,0,262.083,262.083,86.4354,58.5474,1000.1,-0.4,1.2,yes,yes,yes,300234064015020,Snow_Buoy,AWI-USIABP,unknown,North
2016-09-18T03:00:00Z,1474167600,2016,3,0,262.125,262.125,86.4418,58.6174,999.2,-0.4,1.3,yes,yes,yes,300234064015020,Snow_Buoy,AWI-USIABP,unknown,North
2016-09-18T04:00:28Z,1474171229,2016,4,0,262.167,262.167,86.4486,58.7126,998.6,-0.4,1.3,yes,yes,yes,300234064015020,Snow_Buoy,AWI-USIABP,unknown,North
2016-09-18T04:59:31Z,1474174771,2016,5,0,262.208,262.208,86.4552,58.8264,998.4,-0.4,1.5,yes,yes,yes,300234064015020,Snow_Buoy,AWI-USIABP,unknown,North
2016-09-18T06:00:00Z,1474178400,2016,6,0,262.25,262.25,86.4616,58.9646,998.1,-0.4,1.6,yes,yes,yes,300234064015020,Snow_Buoy,AWI-USIABP,unknown,North
2016-09-18T07:00:28Z,1474182029,2016,7,0,262.292,262.292,86.4672,59.1098,997.8,-0.4,1.6,yes,yes,yes,300234064015020,Snow_Buoy,AWI-USIABP,unknown,North
2016-09-18T07:59:31Z,1474185571,2016,8,0,262.333,262.333,86.4716,59.2624,997.5,-0.3,1.5,yes,yes,yes,300234064015020,Snow_Buoy,AWI-USIABP,unknown,North
2016-09-18T09:00:00Z,1474189200,2016,9,0,262.375,262.375,86.4748,59.414,997.5,-0.3,1.5,yes,yes,yes,300234064015020,Snow_Buoy,AWI-USIABP,unknown,North
2016-09-18T10:00:28Z,1474192829,2016,10,0,262.417,262.417,86.4768,59.5484,997.5,-0.3,1.5,yes,yes,yes,300234064015020,Snow_Buoy,AWI-USIABP,unknown,North
2016-09-18T10:59:31Z,1474196371,2016,11,0,262.458,262.458,86.478,59.674,997.7,-0.3,1.5,yes,yes,yes,300234064015020,Snow_Buoy,AWI-USIABP,unknown,North
2016-09-18T12:00:00Z,1474200000,2016,12,0,262.5,262.5,86.4786,59.792,997.8,-0.3,1.6,yes,yes,yes,300234064015020,Snow_Buoy,AWI-USIABP,unknown,North
2016-09-18T13:00:28Z,1474203629,2016,13,0,262.542,262.542,86.4784,59.9246,997.9,-0.3,1.2,yes,yes,yes,300234064015020,Snow_Buoy,AWI-USIABP,unknown,North
2016-09-18T13:59:31Z,1474207171,2016,14,0,262.583,262.583,86.4778,60.053,998.1,-0.3,1.0,yes,yes,yes,300234064015020,Snow_Buoy,AWI-USIABP,unknown,North
2016-09-18T15:00:00Z,1474210800,2016,15,0,262.625,262.625,86.4778,60.1568,998.3,-0.3,1.2,yes,yes,yes,300234064015020,Snow_Buoy,AWI-USIABP,unknown,North
2016-09-18T16:00:28Z,1474214429,2016,16,0,262.667,262.667,86.4786,60.243,998.3,-0.3,1.3,yes,yes,yes,300234064015020,Snow_Buoy,AWI-USIABP,unknown,North
2016-09-18T16:59:31Z,1474217971,2016,17,0,262.708,262.708,86.48,60.3288,998.3,-0.3,1.3,yes,yes,yes,300234064015020,Snow_Buoy,AWI-USIABP,unknown,North
2016-09-18T18:00:00Z,1474221600,2016,18,0,262.75,262.75,86.482,60.4144,998.0,-0.3,1.4,yes,yes,yes,300234064015020,Snow_Buoy,AWI-USIABP,unknown,North
2016-09-18T19:00:28Z,1474225229,2016,19,0,262.792,262.792,86.4844,60.4964,997.7,-0.3,1.4,yes,yes,yes,300234064015020,Snow_Buoy,AWI-USIABP,unknown,North
2016-09-18T19:59:31Z,1474228771,2016,20,0,262.833,262.833,86.487,60.576,997.4,-0.3,1.7,yes,yes,yes,300234064015020,Snow_Buoy,AWI-USIABP,unknown,North
2016-09-18T21:00:00Z,1474232400,2016,21,0,262.875,262.875,86.49,60.6456,996.8,-0.3,1.5,yes,yes,yes,300234064015020,Snow_Buoy,AWI-USIABP,unknown,North
2016-09-18T22:00:28Z,1474236029,2016,22,0,262.917,262.917,86.4932,60.7008,996.1,-0.3,1.5,yes,yes,yes,300234064015020,Snow_Buoy,AWI-USIABP,unknown,North
2016-09-18T22:59:31Z,1474239571,2016,23,0,262.958,262.958,86.4974,60.7528,995.4,-0.3,1.2,yes,yes,yes,300234064015020,Snow_Buoy,AWI-USIABP,unknown,North
2016-09-19T00:00:00Z,1474243200,2016,0,0,263.0,263.0,86.5014,60.8074,994.3,-0.3,1.2,yes,yes,yes,300234064015020,Snow_Buoy,AWI-USIABP,unknown,North
2016-09-19T01:00:28Z,1474246829,2016,1,0,263.042,263.042,86.506,60.8602,993.4,-0.3,1.2,yes,yes,yes,300234064015020,Snow_Buoy,AWI-USIABP,unknown,North
2016-09-19T01:59:31Z,1474250371,2016,2,0,263.083,263.083,86.5106,60.911,992.3,-0.3,1.3,yes,yes,yes,300234064015020,Snow_Buoy,AWI-USIABP,unknown,North
2016-09-19T03:00:00Z,1474254000,2016,3,0,263.125,263.125,86.5154,60.9662,991.3,-0.3,1.3,yes,yes,yes,300234064015020,Snow_Buoy,AWI-USIABP,unknown,North
2016-09-19T04:00:28Z,1474257629,2016,4,0,263.167,263.167,86.5202,61.0226,990.5,-0.3,1.3,yes,yes,yes,300234064015020,Snow_Buoy,AWI-USIABP,unknown,North
2016-09-19T04:59:31Z,1474261171,2016,5,0,263.208,263.208,86.5246,61.0804,989.5,-0.3,1.3,yes,yes,yes,300234064015020,Snow_Buoy,AWI-USIABP,unknown,North
2016-09-19T06:00:00Z,1474264800,2016,6,0,263.25,263.25,86.529,61.1346,988.7,-0.3,1.4,yes,yes,yes,300234064015020,Snow_Buoy,AWI-USIABP,unknown,North
2016-09-19T07:00:28Z,1474268429,2016,7,0,263.292,263.292,86.533,61.181,987.7,-0.3,1.4,yes,yes,yes,300234064015020,Snow_Buoy,AWI-USIABP,unknown,North
2016-09-19T07:59:31Z,1474271971,2016,8,0,263.333,263.333,86.5362,61.22,987.0,-0.3,1.3,yes,yes,yes,300234064015020,Snow_Buoy,AWI-USIABP,unknown,North
2016-09-19T09:00:00Z,1474275600,2016,9,0,263.375,263.375,86.5384,61.254,986.5,-0.3,1.3,yes,yes,yes,300234064015020,Snow_Buoy,AWI-USIABP,unknown,North
2016-09-19T10:00:28Z,1474279229,2016,10,0,263.417,263.417,86.5394,61.2734,985.9,-0.3,1.2,yes,yes,yes,300234064015020,Snow_Buoy,AWI-USIABP,unknown,North
2016-09-19T10:59:31Z,1474282771,2016,11,0,263.458,263.458,86.5392,61.2776,985.4,-0.3,1.2,yes,yes,yes,300234064015020,Snow_Buoy,AWI-USIABP,unknown,North
2016-09-19T12:00:00Z,1474286400,2016,12,0,263.5,263.5,86.5384,61.2688,985.2,-0.3,1.2,yes,yes,yes,300234064015020,Snow_Buoy,AWI-USIABP,unknown,North
2016-09-19T13:00:28Z,1474290029,2016,13,0,263.542,263.542,86.537,61.2512,984.5,-0.3,1.2,yes,yes,yes,300234064015020,Snow_Buoy,AWI-USIABP,unknown,North
2016-09-19T13:59:31Z,1474293571,2016,14,0,263.583,263.583,86.5352,61.229,984.4,-0.3,1.2,yes,yes,yes,300234064015020,Snow_Buoy,AWI-USIABP,unknown,North
2016-09-19T15:00:00Z,1474297200,2016,15,0,263.625,263.625,86.5322,61.2128,984.4,-0.3,1.1,yes,yes,yes,300234064015020,Snow_Buoy,AWI-USIABP,unknown,North
2016-09-19T16:00:28Z,1474300829,2016,16,0,263.667,263.667,86.5266,61.1998,984.5,-0.4,0.0,yes,yes,yes,300234064015020,Snow_Buoy,AWI-USIABP,unknown,North
2016-09-19T16:59:31Z,1474304371,2016,17,0,263.708,263.708,86.5176,61.1718,985.3,-0.4,-1.0,yes,yes,yes,300234064015020,Snow_Buoy,AWI-USIABP,unknown,North
2016-09-19T18:00:00Z,1474308000,2016,18,0,263.75,263.75,86.5068,61.1284,986.3,-0.4,-1.7,yes,yes,yes,300234064015020,Snow_Buoy,AWI-USIABP,unknown,North
2016-09-19T19:00:28Z,1474311629,2016,19,0,263.792,263.792,86.4952,61.0776,987.2,-0.4,-2.5,yes,yes,yes,300234064015020,Snow_Buoy,AWI-USIABP,unknown,North
2016-09-19T19:59:31Z,1474315171,2016,20,0,263.833,263.833,86.4832,61.0106,988.3,-0.5,-2.8,yes,yes,yes,300234064015020,Snow_Buoy,AWI-USIABP,unknown,North
2016-09-19T21:00:00Z,1474318800,2016,21,0,263.875,263.875,86.472,60.9288,989.6,-0.5,-2.9,yes,yes,yes,300234064015020,Snow_Buoy,AWI-USIABP,unknown,North
2016-09-19T22:00:28Z,1474322429,2016,22,0,263.917,263.917,86.4622,60.8408,990.7,-0.5,-2.2,yes,yes,yes,300234064015020,Snow_Buoy,AWI-USIABP,unknown,North
2016-09-19T22:59:31Z,1474325971,2016,23,0,263.958,263.958,86.4532,60.7428,991.7,-0.5,-2.0,yes,yes,yes,300234064015020,Snow_Buoy,AWI-USIABP,unknown,North
2016-09-20T00:00:00Z,1474329600,2016,0,0,264.0,264.0,86.4444,60.6394,992.8,-0.5,-2.2,yes,yes,yes,300234064015020,Snow_Buoy,AWI-USIABP,unknown,North
2016-09-20T01:00:28Z,1474333229,2016,1,0,264.042,264.042,86.4362,60.552,993.7,-0.5,-2.6,yes,yes,yes,300234064015020,Snow_Buoy,AWI-USIABP,unknown,North
2016-09-20T01:59:31Z,1474336771,2016,2,0,264.083,264.083,86.4272,60.4688,994.7,-0.5,-2.6,yes,yes,yes,300234064015020,Snow_Buoy,AWI-USIABP,unknown,North
2016-09-20T03:00:00Z,1474340400,2016,3,0,264.125,264.125,86.4182,60.4052,995.7,-0.5,-2.7,yes,yes,yes,300234064015020,Snow_Buoy,AWI-USIABP,unknown,North
2016-09-20T04:00:28Z,1474344029,2016,4,0,264.167,264.167,86.4084,60.3606,996.7,-0.5,-3.0,yes,yes,yes,300234064015020,Snow_Buoy,AWI-USIABP,unknown,North
2016-09-20T04:59:31Z,1474347571,2016,5,0,264.208,264.208,86.3986,60.3256,997.5,-0.5,-2.8,yes,yes,yes,300234064015020,Snow_Buoy,AWI-USIABP,unknown,North
2016-09-20T06:00:00Z,1474351200,2016,6,0,264.25,264.25,86.3882,60.3032,998.2,-0.5,-3.8,yes,yes,yes,300234064015020,Snow_Buoy,AWI-USIABP,unknown,North
2016-09-20T07:00:28Z,1474354829,2016,7,0,264.292,264.292,86.378,60.2978,999.0,-0.5,-4.6,yes,yes,yes,300234064015020,Snow_Buoy,AWI-USIABP,unknown,North
2016-09-20T07:59:31Z,1474358371,2016,8,0,264.333,264.333,86.3686,60.2934,999.9,-0.5,-4.8,yes,yes,yes,300234064015020,Snow_Buoy,AWI-USIABP,unknown,North
2016-09-20T09:00:00Z,1474362000,2016,9,0,264.375,264.375,86.3594,60.2888,1000.8,-0.5,-4.8,yes,yes,yes,300234064015020,Snow_Buoy,AWI-USIABP,unknown,North
2016-09-20T10:00:28Z,1474365629,2016,10,0,264.417,264.417,86.3506,60.2814,1001.8,-0.6,-4.1,yes,yes,yes,300234064015020,Snow_Buoy,AWI-USIABP,unknown,North
2016-09-20T10:59:31Z,1474369171,2016,11,0,264.458,264.458,86.3422,60.2602,1002.5,-0.6,-3.5,yes,yes,yes,300234064015020,Snow_Buoy,AWI-USIABP,unknown,North
2016-09-20T12:00:00Z,1474372800,2016,12,0,264.5,264.5,86.334,60.231,1002.9,-0.6,-3.6,yes,yes,yes,300234064015020,Snow_Buoy,AWI-USIABP,unknown,North
2016-09-20T13:00:28Z,1474376429,2016,13,0,264.542,264.542,86.326,60.1926,1003.2,-0.6,-4.4,yes,yes,yes,300234064015020,Snow_Buoy,AWI-USIABP,unknown,North
2016-09-20T13:59:31Z,1474379971,2016,14,0,264.583,264.583,86.3192,60.1522,1004.3,-0.6,-4.2,yes,yes,yes,300234064015020,Snow_Buoy,AWI-USIABP,unknown,North
2016-09-20T15:00:00Z,1474383600,2016,15,0,264.625,264.625,86.312,60.1326,1004.9,-0.6,-4.4,yes,yes,yes,300234064015020,Snow_Buoy,AWI-USIABP,unknown,North
2016-09-20T16:00:28Z,1474387229,2016,16,0,264.667,264.667,86.3052,60.1254,1005.6,-0.6,-4.6,yes,yes,yes,300234064015020,Snow_Buoy,AWI-USIABP,unknown,North
2016-09-20T16:59:31Z,1474390771,2016,17,0,264.708,264.708,86.298,60.1288,1006.2,-0.6,-5.0,yes,yes,yes,300234064015020,Snow_Buoy,AWI-USIABP,unknown,North
2016-09-20T18:00:00Z,1474394400,2016,18,0,264.75,264.75,86.291,60.1404,1006.8,-0.6,-5.6,yes,yes,yes,300234064015020,Snow_Buoy,AWI-USIABP,unknown,North
2016-09-20T19:00:28Z,1474398029,2016,19,0,264.792,264.792,86.2838,60.1548,1007.9,-0.7,-5.8,yes,yes,yes,300234064015020,Snow_Buoy,AWI-USIABP,unknown,North
2016-09-20T19:59:31Z,1474401571,2016,20,0,264.833,264.833,86.2764,60.1534,1008.9,-0.7,-5.6,yes,yes,yes,300234064015020,Snow_Buoy,AWI-USIABP,unknown,North
2016-09-20T21:00:00Z,1474405200,2016,21,0,264.875,264.875,86.2688,60.1296,1009.6,-0.7,-6.0,yes,yes,yes,300234064015020,Snow_Buoy,AWI-USIABP,unknown,North
2016-09-20T22:00:28Z,1474408829,2016,22,0,264.917,264.917,86.262,60.0898,1010.7,-0.7,-4.8,yes,yes,yes,300234064015020,Snow_Buoy,AWI-USIABP,unknown,North
2016-09-20T22:59:31Z,1474412371,2016,23,0,264.958,264.958,86.2558,60.0564,1011.3,-0.7,-4.1,yes,yes,yes,300234064015020,Snow_Buoy,AWI-USIABP,unknown,North
2016-09-21T00:00:00Z,1474416000,2016,0,0,265.0,265.0,86.2506,60.0216,1011.7,-0.7,-3.9,yes,yes,yes,300234064015020,Snow_Buoy,AWI-USIABP,unknown,North
2016-09-21T01:00:28Z,1474419629,2016,1,0,265.042,265.042,86.2462,59.992,1012.1,-0.7,-3.6,yes,yes,yes,300234064015020,Snow_Buoy,AWI-USIABP,unknown,North
2016-09-21T01:59:31Z,1474423171,2016,2,0,265.083,265.083,86.2428,59.9748,1012.4,-0.7,-3.4,yes,yes,yes,300234064015020,Snow_Buoy,AWI-USIABP,unknown,North
2016-09-21T03:00:00Z,1474426800,2016,3,0,265.125,265.125,86.24,59.9708,1012.7,-0.7,-3.3,yes,yes,yes,300234064015020,Snow_Buoy,AWI-USIABP,unknown,North
2016-09-21T04:00:28Z,1474430429,2016,4,0,265.167,265.167,86.2378,59.9796,1013.1,-0.7,-3.1,yes,yes,yes,300234064015020,Snow_Buoy,AWI-USIABP,unknown,North
2016-09-21T04:59:31Z,1474433971,2016,5,0,265.208,265.208,86.2356,59.9978,1013.3,-0.7,-2.9,yes,yes,yes,300234064015020,Snow_Buoy,AWI-USIABP,unknown,North
2016-09-21T06:00:00Z,1474437600,2016,6,0,265.25,265.25,86.2336,60.0214,1013.6,-0.7,-2.8,yes,yes,yes,300234064015020,Snow_Buoy,AWI-USIABP,unknown,North
2016-09-21T07:00:28Z,1474441229,2016,7,0,265.292,265.292,86.2312,60.0444,1013.9,-0.6,-2.8,yes,yes,yes,300234064015020,Snow_Buoy,AWI-USIABP,unknown,North
2016-09-21T07:59:31Z,1474444771,2016,8,0,265.333,265.333,86.2286,60.0618,1014.1,-0.6,-2.6,yes,yes,yes,300234064015020,Snow_Buoy,AWI-USIABP,unknown,North
2016-09-21T09:00:00Z,1474448400,2016,9,0,265.375,265.375,86.2262,60.0696,1014.2,-0.6,-2.4,yes,yes,yes,300234064015020,Snow_Buoy,AWI-USIABP,unknown,North
2016-09-21T10:00:28Z,1474452029,2016,10,0,265.417,265.417,86.2242,60.0754,1014.1,-0.6,-2.5,yes,yes,yes,300234064015020,Snow_Buoy,AWI-USIABP,unknown,North
2016-09-21T10:59:31Z,1474455571,2016,11,0,265.458,265.458,86.2228,60.0774,1014.0,-0.6,-2.5,yes,yes,yes,300234064015020,Snow_Buoy,AWI-USIABP,unknown,North
2016-09-21T12:00:00Z,1474459200,2016,12,0,265.5,265.5,86.2222,60.0812,1013.9,-0.6,-2.4,yes,yes,yes,300234064015020,Snow_Buoy,AWI-USIABP,unknown,North
2016-09-21T13:00:28Z,1474462829,2016,13,0,265.542,265.542,86.2228,60.1008,1013.3,-0.6,-2.4,yes,yes,yes,300234064015020,Snow_Buoy,AWI-USIABP,unknown,North
2016-09-21T13:59:31Z,1474466371,2016,14,0,265.583,265.583,86.224,60.1306,1012.8,-0.6,-2.4,yes,yes,yes,300234064015020,Snow_Buoy,AWI-USIABP,unknown,North
2016-09-21T15:00:00Z,1474470000,2016,15,0,265.625,265.625,86.2262,60.165,1012.2,-0.6,-2.7,yes,yes,yes,300234064015020,Snow_Buoy,AWI-USIABP,unknown,North
2016-09-21T16:00:28Z,1474473629,2016,16,0,265.667,265.667,86.2286,60.212,1011.8,-0.6,-2.6,yes,yes,yes,300234064015020,Snow_Buoy,AWI-USIABP,unknown,North
2016-09-21T16:59:31Z,1474477171,2016,17,0,265.708,265.708,86.2302,60.269,1011.3,-0.6,-2.7,yes,yes,yes,300234064015020,Snow_Buoy,AWI-USIABP,unknown,North
2016-09-21T18:00:00Z,1474480800,2016,18,0,265.75,265.75,86.2312,60.3264,1011.1,-0.6,-2.7,yes,yes,yes,300234064015020,Snow_Buoy,AWI-USIABP,unknown,North
2016-09-21T19:00:28Z,1474484429,2016,19,0,265.792,265.792,86.2314,60.381,1010.5,-0.6,-2.9,yes,yes,yes,300234064015020,Snow_Buoy,AWI-USIABP,unknown,North
2016-09-21T19:59:31Z,1474487971,2016,20,0,265.833,265.833,86.2312,60.4292,1010.0,-0.6,-2.9,yes,yes,yes,300234064015020,Snow_Buoy,AWI-USIABP,unknown,North
2016-09-21T21:00:00Z,1474491600,2016,21,0,265.875,265.875,86.2306,60.4652,1009.7,-0.6,-3.0,yes,yes,yes,300234064015020,Snow_Buoy,AWI-USIABP,unknown,North
2016-09-21T22:00:28Z,1474495229,2016,22,0,265.917,265.917,86.23,60.4848,1009.5,-0.6,-3.2,yes,yes,yes,300234064015020,Snow_Buoy,AWI-USIABP,unknown,North
2016-09-21T22:59:31Z,1474498771,2016,23,0,265.958,265.958,86.2294,60.4906,1009.1,-0.6,-3.1,yes,yes,yes,300234064015020,Snow_Buoy,AWI-USIABP,unknown,North
2016-09-22T00:00:00Z,1474502400,2016,0,0,266.0,266.0,86.2288,60.4914,1008.7,-0.6,-3.2,yes,yes,yes,300234064015020,Snow_Buoy,AWI-USIABP,unknown,North
2016-09-22T01:00:28Z,1474506029,2016,1,0,266.042,266.042,86.2288,60.4876,1008.3,-0.6,-3.4,yes,yes,yes,300234064015020,Snow_Buoy,AWI-USIABP,unknown,North
2016-09-22T01:59:31Z,1474509571,2016,2,0,266.083,266.083,86.2292,60.4838,1007.8,-0.7,-3.5,yes,yes,yes,300234064015020,Snow_Buoy,AWI-USIABP,unknown,North
2016-09-22T03:00:00Z,1474513200,2016,3,0,266.125,266.125,86.23,60.4942,1007.3,-0.7,-3.6,yes,yes,yes,300234064015020,Snow_Buoy,AWI-USIABP,unknown,North
2016-09-22T04:00:28Z,1474516829,2016,4,0,266.167,266.167,86.2308,60.518,1006.9,-0.7,-3.7,yes,yes,yes,300234064015020,Snow_Buoy,AWI-USIABP,unknown,North
2016-09-22T04:59:31Z,1474520371,2016,5,0,266.208,266.208,86.2316,60.563,1006.7,-0.7,-3.9,yes,yes,yes,300234064015020,Snow_Buoy,AWI-USIABP,unknown,North
2016-09-22T06:00:00Z,1474524000,2016,6,0,266.25,266.25,86.2314,60.62,1006.7,-0.7,-4.5,yes,yes,yes,300234064015020,Snow_Buoy,AWI-USIABP,unknown,North
2016-09-22T07:00:28Z,1474527629,2016,7,0,266.292,266.292,86.2306,60.6878,1006.4,-0.7,-4.8,yes,yes,yes,300234064015020,Snow_Buoy,AWI-USIABP,unknown,North
2016-09-22T07:59:31Z,1474531171,2016,8,0,266.333,266.333,86.2288,60.7646,1006.3,-0.7,-4.8,yes,yes,yes,300234064015020,Snow_Buoy,AWI-USIABP,unknown,North
2016-09-22T09:00:00Z,1474534800,2016,9,0,266.375,266.375,86.2264,60.8414,1005.9,-0.7,-5.4,yes,yes,yes,300234064015020,Snow_Buoy,AWI-USIABP,unknown,North
2016-09-22T10:00:28Z,1474538429,2016,10,0,266.417,266.417,86.2238,60.911,1005.9,-0.8,-5.8,yes,yes,yes,300234064015020,Snow_Buoy,AWI-USIABP,unknown,North
2016-09-22T10:59:31Z,1474541971,2016,11,0,266.458,266.458,86.2212,60.9698,1005.8,-0.8,-6.1,yes,yes,yes,300234064015020,Snow_Buoy,AWI-USIABP,unknown,North
2016-09-22T12:00:00Z,1474545600,2016,12,0,266.5,266.5,86.2194,61.025,1005.7,-0.8,-5.8,yes,yes,yes,300234064015020,Snow_Buoy,AWI-USIABP,unknown,North
2016-09-22T13:00:28Z,1474549229,2016,13,0,266.542,266.542,86.219,61.0854,1005.2,-0.8,-5.9,yes,yes,yes,300234064015020,Snow_Buoy,AWI-USIABP,unknown,North
2016-09-22T13:59:31Z,1474552771,2016,14,0,266.583,266.583,86.2196,61.155,1005.0,-0.8,-5.2,yes,yes,yes,300234064015020,Snow_Buoy,AWI-USIABP,unknown,North
2016-09-22T15:00:00Z,1474556400,2016,15,0,266.625,266.625,86.2206,61.2352,1004.7,-0.8,-4.8,yes,yes,yes,300234064015020,Snow_Buoy,AWI-USIABP,unknown,North
2016-09-22T16:00:28Z,1474560029,2016,16,0,266.667,266.667,86.2206,61.3268,1004.6,-0.8,-4.1,yes,yes,yes,300234064015020,Snow_Buoy,AWI-USIABP,unknown,North
2016-09-22T16:59:31Z,1474563571,2016,17,0,266.708,266.708,86.218,61.4218,1004.7,-0.8,-3.6,yes,yes,yes,300234064015020,Snow_Buoy,AWI-USIABP,unknown,North
2016-09-22T18:00:00Z,1474567200,2016,18,0,266.75,266.75,86.2146,61.514,1004.9,-0.8,-3.7,yes,yes,yes,300234064015020,Snow_Buoy,AWI-USIABP,unknown,North
2016-09-22T19:00:28Z,1474570829,2016,19,0,266.792,266.792,86.2104,61.5934,1005.0,-0.8,-4.0,yes,yes,yes,300234064015020,Snow_Buoy,AWI-USIABP,unknown,North
2016-09-22T19:59:31Z,1474574371,2016,20,0,266.833,266.833,86.2056,61.6566,1005.2,-0.8,-4.5,yes,yes,yes,300234064015020,Snow_Buoy,AWI-USIABP,unknown,North
2016-09-22T21:00:00Z,1474578000,2016,21,0,266.875,266.875,86.2014,61.7074,1005.4,-0.8,-4.9,yes,yes,yes,300234064015020,Snow_Buoy,AWI-USIABP,unknown,North
2016-09-22T22:00:28Z,1474581629,2016,22,0,266.917,266.917,86.1974,61.7422,1005.8,-0.8,-5.3,yes,yes,yes,300234064015020,Snow_Buoy,AWI-USIABP,unknown,North
2016-09-22T22:59:31Z,1474585171,2016,23,0,266.958,266.958,86.194,61.7626,1005.9,-0.8,-5.2,yes,yes,yes,300234064015020,Snow_Buoy,AWI-USIABP,unknown,North
2016-09-23T00:00:00Z,1474588800,2016,0,0,267.0,267.0,86.1914,61.775,1005.9,-0.8,-5.2,yes,yes,yes,300234064015020,Snow_Buoy,AWI-USIABP,unknown,North
2016-09-23T01:00:28Z,1474592429,2016,1,0,267.042,267.042,86.1896,61.7844,1005.9,-0.8,-5.5,yes,yes,yes,300234064015020,Snow_Buoy,AWI-USIABP,unknown,North
2016-09-23T01:59:31Z,1474595971,2016,2,0,267.083,267.083,86.1886,61.7998,1005.6,-0.9,-6.4,yes,yes,yes,300234064015020,Snow_Buoy,AWI-USIABP,unknown,North
2016-09-23T03:00:00Z,1474599600,2016,3,0,267.125,267.125,86.1882,61.8256,1005.5,-0.9,-6.3,yes,yes,yes,300234064015020,Snow_Buoy,AWI-USIABP,unknown,North
2016-09-23T04:00:28Z,1474603229,2016,4,0,267.167,267.167,86.1882,61.8626,1005.4,-0.9,-6.2,yes,yes,yes,300234064015020,Snow_Buoy,AWI-USIABP,unknown,North
2016-09-23T04:59:31Z,1474606771,2016,5,0,267.208,267.208,86.1886,61.9188,1005.3,-0.9,-6.4,yes,yes,yes,300234064015020,Snow_Buoy,AWI-USIABP,unknown,North
2016-09-23T06:00:00Z,1474610400,2016,6,0,267.25,267.25,86.1892,61.9896,1004.9,-0.9,-7.0,yes,yes,yes,300234064015020,Snow_Buoy,AWI-USIABP,unknown,North
2016-09-23T07:00:28Z,1474614029,2016,7,0,267.292,267.292,86.1898,62.0686,1004.8,-1.0,-6.7,yes,yes,yes,300234064015020,Snow_Buoy,AWI-USIABP,unknown,North
2016-09-23T07:59:31Z,1474617571,2016,8,0,267.333,267.333,86.1906,62.1402,1004.1,-1.0,-5.9,yes,yes,yes,300234064015020,Snow_Buoy,AWI-USIABP,unknown,North
2016-09-23T09:00:00Z,1474621200,2016,9,0,267.375,267.375,86.1912,62.2318,1003.7,-0.9,-5.9,yes,yes,yes,300234064015020,Snow_Buoy,AWI-USIABP,unknown,North
2016-09-23T10:00:28Z,1474624829,2016,10,0,267.417,267.417,86.1902,62.3328,1003.1,-0.9,-6.0,yes,yes,yes,300234064015020,Snow_Buoy,AWI-USIABP,unknown,North
2016-09-23T10:59:31Z,1474628371,2016,11,0,267.458,267.458,86.1876,62.4228,1002.6,-1.0,-6.5,yes,yes,yes,300234064015020,Snow_Buoy,AWI-USIABP,unknown,North
2016-09-23T12:00:00Z,1474632000,2016,12,0,267.5,267.5,86.1836,62.5022,1002.7,-1.0,-5.8,yes,yes,yes,300234064015020,Snow_Buoy,AWI-USIABP,unknown,North
2016-09-23T13:00:28Z,1474635629,2016,13,0,267.542,267.542,86.1792,62.566,1002.4,-1.0,-4.9,yes,yes,yes,300234064015020,Snow_Buoy,AWI-USIABP,unknown,North
2016-09-23T13:59:31Z,1474639171,2016,14,0,267.583,267.583,86.1738,62.6136,1002.1,-1.0,-5.1,yes,yes,yes,300234064015020,Snow_Buoy,AWI-USIABP,unknown,North
2016-09-23T15:00:00Z,1474642800,2016,15,0,267.625,267.625,86.1674,62.64,1002.3,-1.0,-5.8,yes,yes,yes,300234064015020,Snow_Buoy,AWI-USIABP,unknown,North
2016-09-23T16:00:28Z,1474646429,2016,16,0,267.667,267.667,86.1604,62.6476,1003.1,-1.0,-5.8,yes,yes,yes,300234064015020,Snow_Buoy,AWI-USIABP,unknown,North
2016-09-23T16:59:31Z,1474649971,2016,17,0,267.708,267.708,86.1524,62.651,1003.7,-1.0,-6.6,yes,yes,yes,300234064015020,Snow_Buoy,AWI-USIABP,unknown,North
2016-09-23T18:00:00Z,1474653600,2016,18,0,267.75,267.75,86.1446,62.6518,1004.5,-1.0,-6.5,yes,yes,yes,300234064015020,Snow_Buoy,AWI-USIABP,unknown,North
2016-09-23T19:00:28Z,1474657229,2016,19,0,267.792,267.792,86.1366,62.6536,1005.4,-1.1,-7.1,yes,yes,yes,300234064015020,Snow_Buoy,AWI-USIABP,unknown,North
2016-09-23T19:59:31Z,1474660771,2016,20,0,267.833,267.833,86.1292,62.6504,1006.5,-1.1,-6.4,yes,yes,yes,300234064015020,Snow_Buoy,AWI-USIABP,unknown,North
2016-09-23T21:00:00Z,1474664400,2016,21,0,267.875,267.875,86.1224,62.6478,1007.3,-1.1,-6.1,yes,yes,yes,300234064015020,Snow_Buoy,AWI-USIABP,unknown,North
2016-09-23T22:00:28Z,1474668029,2016,22,0,267.917,267.917,86.1166,62.6494,1007.7,-1.1,-6.8,yes,yes,yes,300234064015020,Snow_Buoy,AWI-USIABP,unknown,North
2016-09-23T22:59:31Z,1474671571,2016,23,0,267.958,267.958,86.1112,62.65,1008.3,-1.1,-7.9,yes,yes,yes,300234064015020,Snow_Buoy,AWI-USIABP,unknown,North
2016-09-24T00:00:00Z,1474675200,2016,0,0,268.0,268.0,86.1064,62.658,1009.1,-1.2,-7.6,yes,yes,yes,300234064015020,Snow_Buoy,AWI-USIABP,unknown,North